Regional Weather Roundup
Issued by NWS

Home | Current Version | Previous Version | Text Only | Print | Product List | Glossary Off
Versions: 1 2 3 4 5 6 7 8 9 10 11 12 13 14 15 16 17 18 19 20 21 22 23 24 25 26 27 28 29 30 31 32 33 34 35 36 37 38 39 40 41 42 43 44 45 46 47 48 49 50

000
ASUS45 KBOU 301107
RWRCO

WEATHER ROUNDUP FOR COLORADO
NATIONAL WEATHER SERVICE DENVER/BOULDER CO
500 AM MDT WED JUL 30 2014

NOTE: "FAIR" INDICATES FEW OR NO CLOUDS BELOW 12000 FEET WITH NO
SIGNIFICANT WEATHER AND/OR OBSTRUCTIONS TO VISIBILITY.

COZ001>005-013-030-031-301200-
...NORTHWEST COLORADO...

CITY           SKY/WX    TMP DP  RH WIND       PRES   REMARKS
CRAIG          CLOUDY    55  32  41 W5        30.28S
HAYDEN         CLOUDY    55  54  94 CALM      30.29S
MEEKER         PTCLDY    52  50  93 NE3       30.30R
MOUNT WERNER   NOT AVBL
STEAMBOAT SPGS CLOUDY    55  54  97 E3        30.30S
WALDEN         CLOUDY    52  50  93 CALM      30.37S
$$

COZ006>008-011-301200-
...WEST CENTRAL VALLEYS...

CITY           SKY/WX    TMP DP  RH WIND       PRES   REMARKS
GRAND JUNCTION PTCLDY    59  57  93 CALM      30.20R
MONTROSE       CLEAR     57  54  89 SE7       30.27R
EAGLE          CLOUDY    55  55 100 E3        30.32R
RIFLE          PTCLDY    57  56  96 CALM      30.25S
DELTA          CLEAR     60  57  89 CALM      30.23S
NUCLA          CLOUDY    59  55  88 E5        30.29S
$$

COZ017>023-064>068-301200-
...SOUTHWEST COLORADO...

CITY           SKY/WX    TMP DP  RH WIND       PRES   REMARKS
DURANGO        MOCLDY    58  54  86 CALM      30.27R
CORTEZ         MOCLDY    59  55  87 NE5       30.23S
PAGOSA SPRINGS CLOUDY    56  53  92 CALM      30.35S
TELLURIDE      CLOUDY    54  48  82 SE3       30.44S
WOLF CREEK PAS NOT AVBL
$$

COZ009-010-012-014-032>034-037-058>063-301200-
...CENTRAL COLORADO...

CITY           SKY/WX    TMP DP  RH WIND       PRES   REMARKS
ASPEN          MOCLDY    50  49  96 SW5       30.35S
BUENA VISTA    MOCLDY    54  51  87 SE3       30.36S
COPPER MTN     CLOUDY    45  39  81 W8        30.59S
BERTHOUD PASS  FOG       37  36  93 SE6       30.64R VSB<1/4
COTTONWOOD PAS CLOUDY    54  43  66 W5        30.47S
GUNNISON       CLOUDY    52  46  82 N7        30.39S
KREMMLING      DRIZZLE   54  52  94 CALM      30.35S
LEADVILLE      MOCLDY    45  43  93 N3        30.46R
MONARCH PASS   MOCLDY    43  37  81 W6        30.69S
SALIDA         MOCLDY    56  54  94 CALM      30.40S
SUNLIGHT       PTCLDY    46  43  87 CALM      30.54S
WILKERSON PASS FOG       43  43 100 NE6       30.57F VSB 1/4
$$

COZ069>075-301200-
...SAN LUIS VALLEY/SANGRE DE CRISTO MOUNTAINS...

CITY           SKY/WX    TMP DP  RH WIND       PRES   REMARKS
ALAMOSA        MOCLDY    52  50  93 CALM      30.33S
LA VETA PASS   MOCLDY    45  45 100 CALM      30.48S
SAGUACHE       MOCLDY    55  46  71 NE8       30.35F
$$

COZ035-036-038>040-301200-
...NORTHERN COLORADO FRONT RANGE...

CITY           SKY/WX    TMP DP  RH WIND       PRES   REMARKS
DENVER INTL AP CLOUDY    59  57  93 NE10      30.27S
DMNS CITY PARK   N/A     58  57  97 N5        30.27S
AURORA         NOT AVBL
FRONT RANGE AP CLOUDY    59  59 100 NE7       30.28S
ERIE MUNI ARPT HVY RAIN  59  58  97 NE6       30.27S
BOULDER MUN AP   N/A    N/A N/A N/A MISG        N/A
CENTENNIAL     LGT RAIN  57  56  96 NE6       30.28S FOG
BROOMFIELD     LGT RAIN  59  59 100 N8        30.29S
FORT COLLINS   CLOUDY    59  57  94 N5        30.30R
LONGMONT       HVY RAIN  61  59  94 NE5       30.30R
$$

COZ041-046-047-076>085-087-088-301200-
...PIKES PEAK/PALMER DIVIDE AND SOUTHERN FOOTHILLS...

CITY           SKY/WX    TMP DP  RH WIND       PRES   REMARKS
COLO. SPRINGS  LGT RAIN  60  56  86 NE5       30.28S
A. F. ACADEMY  MOCLDY    57  57  99 NW8       30.29S
ELLICOTT       CLOUDY    58  56  93 NE7       30.26S
FALCON         DRIZZLE   55  55  97 NE7       30.31F
FORT CARSON    CLOUDY    60  58  94 E3        30.26R
LIMON          CLOUDY    58  56  93 NE10      30.25R
MONUMENT HILL  DRIZZLE   52  52 100 NE8       30.31S
TRINIDAD       CLOUDY    62  57  83 N7        30.23R
$$

COZ042>045-048>051-090-091-301200-
...NORTHEAST COLORADO...

CITY           SKY/WX    TMP DP  RH WIND       PRES   REMARKS
GREELEY ARPT   NOT AVBL
AKRON          CLOUDY    60  58  92 E10       30.24R
BURLINGTON     CLOUDY    60  58  92 NE13      30.19R
WRAY             N/A    N/A N/A N/A E12       30.21R
STERLING       CLOUDY    64  63  94 N3        30.23R
HOLYOKE        CLOUDY    63  61  94 E5        30.23R
FORT MORGAN    CLOUDY    61  59  92 NE8       30.25S
$$

COZ086-089-092>099-301200-
...SOUTHEAST COLORADO...

CITY           SKY/WX    TMP DP  RH WIND       PRES   REMARKS
PUEBLO         MOCLDY    62  60  93 NE6       30.19S
LA JUNTA       CLOUDY    63  60  90 NE7       30.16S
LAMAR          CLOUDY    64  61  90 N9        30.09S
SPRINGFIELD      N/A     61  61 100 N13       30.10F
$$



USA.gov is the U.S. government's official web portal to all federal, state and local government web resources and services.